Weather History for Kalispell, MT

Change the Weather History Date:

Friday, June 21, 2013

  Actual Average Record
Temperature  
Mean Temperature 54 °F 59 °F  
Max Temperature 63 °F 73 °F 93 °F (1919)
Min Temperature 45 °F 45 °F 32 °F (1983)
Degree Days  
Heating Degree Days 11 6  
Month to date heating degree days 152 166  
Since 1 June heating degree days 152 166  
Since 1 July heating degree days 7418 7989  
Cooling Degree Days 0 1  
Month to date cooling degree days 3 2  
Year to date cooling degree days 3 5  
Since 1 June cooling degree days 3 2  
Growing Degree Days 4 (Base 50)    
Moisture  
Dew Point 44 °F    
Average Humidity 70    
Maximum Humidity 93    
Minimum Humidity 46    
Precipitation  
Precipitation 0.02 in 0.08 in 0.70 in (1984)
Month to date precipitation 2.29 1.85  
Year to date precipitation 8.59 8.46  
Snow  
Snow 0.00 in - - ()
Month to date snowfall 0.0  
Year to date snowfall 10.1  
Since 1 July snowfall 18.9  
Snow Depth 0.00 in    
Sea Level Pressure  
Sea Level Pressure 30.08 in    
Wind  
Wind Speed 2 mph (WSW)    
Max Wind Speed 20 mph    
Max Gust Speed 36 mph    
Visibility 10 miles    
Events Rain    
T = Trace of Precipitation, MM = Missing Value Source: NWS Daily Summary

Daily Weather History Graph

Daily Weather History Graph

Search for Another Location

Airport:

Trip Planner

Search our weather history database for the weather conditions in past years. The results will help you decide how hot, cold, wet, or windy it might be!

Date:

Astronomy

Jun. 21, 2013 Rise Set
Actual Time 5:36 AM MDT 9:41 PM MDT
Civil Twilight 4:54 AM MDT 10:23 PM MDT
Nautical Twilight 3:55 AM MDT 11:22 PM MDT
Astronomical Twilight 2:06 AM MDT 1:11 AM MDT
Moon 7:51 PM MDT (6/21) 4:02 AM MDT (6/21)
Length of Visible Light 17h 29m
Length of Day
16h 05m
Waxing Gibbous, 95% of the Moon is Illuminated
Jun 21
Waxing Gibbous
Jun 23
Full
Jun 29
Last Quarter
Jul 8
New
Jul 15
First Quarter

Hourly Weather History & Observations

Time (MDT) Temp. Windchill Dew Point Humidity Pressure Visibility Wind Dir Wind Speed Gust Speed Precip Events Conditions
12:55 AM 48.0 °F - 43.0 °F 83% 30.08 in 10.0 mi South 4.6 mph - N/A   Overcast
1:55 AM 46.9 °F - 44.1 °F 90% 30.07 in 10.0 mi SSW 3.5 mph - N/A   Overcast
2:55 AM 46.9 °F - 44.1 °F 90% 30.06 in 10.0 mi Calm Calm - N/A   Overcast
3:55 AM 46.0 °F 44.8 °F 43.0 °F 89% 30.06 in 10.0 mi SW 3.5 mph - N/A   Overcast
4:55 AM 46.9 °F - 43.0 °F 86% 30.08 in 10.0 mi Calm Calm - N/A   Overcast
5:55 AM 46.0 °F - 43.0 °F 89% 30.08 in 10.0 mi Calm Calm - N/A   Overcast
6:55 AM 46.9 °F - 43.0 °F 86% 30.09 in 10.0 mi Calm Calm - N/A   Overcast
7:55 AM 48.0 °F - 44.1 °F 86% 30.10 in 10.0 mi Calm Calm - 0.00 in   Overcast
8:55 AM 50.0 °F - 45.0 °F 83% 30.11 in 10.0 mi WNW 3.5 mph - 0.01 in Rain Light Rain
9:55 AM 52.0 °F - 44.1 °F 74% 30.11 in 10.0 mi Calm Calm - 0.00 in   Scattered Clouds
10:55 AM 53.1 °F - 41.0 °F 64% 30.10 in 10.0 mi SSE 4.6 mph - N/A   Overcast
11:55 AM 55.0 °F - 41.0 °F 59% 30.09 in 10.0 mi Variable 4.6 mph - N/A   Overcast
12:55 PM 55.9 °F - 41.0 °F 57% 30.09 in 10.0 mi Calm Calm - N/A   Overcast
1:55 PM 55.9 °F - 42.1 °F 60% 30.09 in 10.0 mi Calm Calm - 0.00 in   Mostly Cloudy
2:55 PM 60.1 °F - 43.0 °F 53% 30.08 in 10.0 mi Variable 5.8 mph - 0.00 in   Mostly Cloudy
3:55 PM 60.1 °F - 41.0 °F 49% 30.08 in 10.0 mi Calm Calm - 0.00 in   Mostly Cloudy
4:55 PM 63.0 °F - 41.0 °F 45% 30.06 in 10.0 mi Calm Calm - N/A   Scattered Clouds
5:55 PM 59.0 °F - 44.1 °F 58% 30.08 in 10.0 mi WNW 8.1 mph - 0.00 in Rain Light Rain
6:55 PM 57.9 °F - 48.0 °F 70% 30.07 in 10.0 mi WSW 3.5 mph - 0.01 in Rain Light Rain
7:55 PM 57.0 °F - 48.0 °F 72% 30.07 in 10.0 mi West 5.8 mph - 0.00 in   Mostly Cloudy
8:55 PM 55.9 °F - 46.9 °F 72% 30.07 in 10.0 mi WNW 3.5 mph - N/A   Mostly Cloudy
9:55 PM 53.1 °F - 48.9 °F 86% 30.09 in 10.0 mi Calm Calm - N/A   Mostly Cloudy
10:55 PM 48.0 °F - 46.0 °F 93% 30.10 in 10.0 mi North - - N/A   Clear
11:55 PM 46.9 °F - 45.0 °F 93% 30.10 in 10.0 mi Calm Calm - N/A   Clear